Location: Kotliszowice
(50.4692°N, 18.5556°E)
Time: 09:29:05
(UTC+00:00)

Daily predictions for brighter satellites

Satellite Brightness Start Highest point End
(mag) Time Altitude Azimuth Time Altitude Azimuth Time Altitude Azimuth
STARLINK-1113 3.6 19:24:29 10° WNW 19:28:39 85° SSW 19:32:47 10° ESE
STARLINK-1239 3.6 19:26:00 10° SW 19:30:07 66° SSE 19:34:14 10° ENE
USA 215 4.2 19:25:16 10° ENE 19:31:33 51° N 19:37:50 10° WNW
STARLINK-1201 4.1 19:28:43 10° W 19:32:51 66° N 19:36:59 10° ENE
Aureole 2 Rocket 3.0 19:30:23 10° S 19:33:08 30° ESE 19:35:47 10° NE
CENTAUR R/B 3.8 19:26:04 10° NW 19:33:26 49° NNE 19:41:42 10° ESE
NOSS 2-2 (D) 4.5 19:30:52 10° SSE 19:33:34 20° ESE 19:36:28 10° ENE
STARLINK-1119 3.6 19:29:29 10° WNW 19:33:38 81° SSW 19:37:48 10° ESE
Cosmos 1437 Rocket 2.9 19:31:18 10° S 19:34:58 53° E 19:38:43 10° NNE
STARLINK-1240 3.6 19:30:57 10° WSW 19:35:05 70° SSE 19:39:13 10° ENE
Meteor 1-4 Rocket 4.2 19:31:53 10° SW 19:35:06 36° WNW 19:38:22 10° N
ATLAS 3B R/B 4.1 19:30:26 10° NW 19:36:22 32° NNE 19:42:26 10° E
Lacrosse 5 3.1 19:33:05 10° WNW 19:37:33 32° SW 19:42:00 10° SSE
STARLINK-1206 4.1 19:33:44 10° W 19:37:52 65° N 19:42:00 10° ENE
Cosmos 304 Rocket 4.1 19:33:44 10° S 19:38:16 45° ESE 19:42:51 10° NE
STARLINK-1114 3.6 19:34:27 10° WNW 19:38:36 77° SSW 19:42:44 10° ESE
STARLINK-1203 3.6 19:35:32 10° WSW 19:39:43 74° SSE 19:43:56 10° ENE
STARLINK-1216 3.6 19:35:54 10° WSW 19:40:02 74° SSE 19:44:11 10° ENE
ISS -1.7 19:38:40 10° W 19:41:02 18° SW 19:43:23 10° S
CZ-2C R/B 3.5 19:36:14 10° N 19:41:45 58° WNW 19:47:14 10° SSW
STARLINK-1205 4.1 19:38:43 10° W 19:42:50 64° N 19:46:58 10° ENE
STARLINK-1130 (DARKSAT) 3.7 19:39:26 10° WNW 19:43:35 73° SSW 19:47:42 10° ESE
STARLINK-1237 3.6 19:40:52 10° WSW 19:45:01 78° SSE 19:49:10 10° ENE
STARLINK-1218 4.2 19:43:43 10° W 19:47:51 62° N 19:51:58 10° ENE
Cosmos 1674 Rocket 3.6 19:44:08 10° S 19:48:28 66° E 19:52:52 10° NNE
STARLINK-1084 3.7 19:44:25 10° WNW 19:48:33 70° SSW 19:52:40 10° ESE
Meteor 2-4 Rocket 4.2 19:43:29 10° SSW 19:48:46 60° WNW 19:54:06 10° N
STARLINK-1202 3.6 19:45:51 10° WSW 19:50:00 81° SSE 19:54:10 10° ENE
NOSS 2-2 (E) 3.8 19:47:21 10° S 19:50:40 35° ESE 19:54:24 10° NE
Cosmos 1378 Rocket 3.7 19:47:07 10° S 19:51:25 55° E 19:55:42 10° NNE
EXPRESS MD2 3.9 19:48:45 10° SW 19:51:46 39° SE 19:57:14 10° ENE
Cosmos 1833 Rocket 4.3 19:47:57 10° NW 19:52:44 29° WSW 19:57:30 10° SSW
SL-27 R/B 4.1 19:49:43 10° N 19:52:45 25° ENE 19:55:44 10° ESE
STARLINK-1254 4.2 19:48:43 10° W 19:52:50 62° N 19:56:57 10° ENE
STARLINK-1098 3.7 19:49:24 10° WNW 19:53:31 66° SSW 19:57:33 10° SE
Cosmos 1766 4.1 19:50:09 10° N 19:53:55 38° ENE 19:57:24 11° SE
Cosmos 2297 3.8 19:49:58 10° S 19:55:33 59° ESE 20:01:11 10° NE
Cosmos 1943 Rocket 3.1 19:51:23 10° SSE 19:56:04 29° ESE 20:00:49 10° NE
Cosmos 1900 4.5 19:52:06 10° NW 19:57:09 74° NE 20:01:59 11° SE
STARLINK-1231 4.2 19:53:42 10° W 19:57:48 61° N 20:01:56 10° ENE
STARLINK-1123 3.8 19:54:22 10° WNW 19:58:29 62° SSW 20:02:19 11° SE
Cosmos 2082 Rocket 3.2 19:54:14 10° NW 19:59:34 41° WSW 20:04:51 10° S
STARLINK-1246 3.6 19:55:49 10° WSW 19:59:58 88° SSE 20:04:08 10° ENE
IGS 5A 3.6 19:56:01 10° S 20:00:09 74° WSW 20:04:20 10° NNW
Cosmos 1452 Rocket 4.0 19:56:58 10° SW 20:02:13 66° WNW 20:07:31 10° NNE
Cosmos 332 Rocket 4.0 19:57:32 10° SSW 20:02:27 79° WNW 20:07:23 10° NNE
BREEZE-M DEB 3.7 20:00:24 10° SSW 20:02:37 25° SE 20:06:54 10° E
STARLINK-1232 4.2 19:58:43 10° W 20:02:49 60° N 20:06:56 10° ENE
Landsat 7 4.0 19:58:24 10° S 20:03:09 72° WSW 20:07:56 10° NNW
STARLINK-1097 3.8 19:59:23 10° WNW 20:03:28 59° SSW 20:07:07 13° SE
STARLINK-1224 3.6 20:00:47 10° WSW 20:04:56 88° NNW 20:09:06 10° ENE
Meteor 1-23 Rocket 4.2 20:01:05 10° S 20:06:45 76° E 20:12:24 10° NNE
STARLINK-1208 4.2 20:03:41 10° W 20:07:48 60° N 20:11:55 10° ENE
STARLINK-1099 3.9 20:04:22 10° WNW 20:08:25 55° SSW 20:11:54 14° SE
Cosmos 1461 2.9 20:04:49 10° SW 20:08:59 86° SE 20:13:26 10° NE
STARLINK-1225 3.7 20:05:47 10° WSW 20:09:56 85° NNW 20:14:06 10° ENE
SAR-Lupe-2 3.6 20:06:30 10° NNE 20:10:08 83° WNW 20:13:44 10° SSW
Cosmos 1975 Rocket 4.0 20:07:29 13° SSE 20:10:56 32° E 20:14:53 10° NNE
Cosmos 2369 Rocket 3.1 20:07:21 11° SSE 20:11:59 29° ESE 20:16:44 10° NE
STARLINK-1271 4.2 20:08:43 10° W 20:12:49 60° N 20:16:56 10° E
STARLINK-1104 3.9 20:09:20 10° WNW 20:13:22 52° SSW 20:16:40 15° SE
STARLINK-1212 3.4 20:11:46 10° WNW 20:14:51 58° N 20:17:56 10° E
STARLINK-1230 3.7 20:10:45 10° WSW 20:14:55 82° NNW 20:19:04 10° ENE
NOSS 2-2 (C) 3.4 20:11:44 10° SSW 20:15:11 48° SE 20:19:04 10° NE
STARLINK-1105 3.4 20:12:14 10° WNW 20:15:19 58° N 20:18:23 10° E
STARLINK-1247 3.4 20:13:07 10° WNW 20:16:12 58° N 20:19:18 10° E
STARLINK-1227 3.4 20:13:36 10° WNW 20:16:42 58° N 20:19:46 10° E
STARLINK-1226 3.4 20:14:28 10° WNW 20:17:34 59° NNE 20:20:39 10° E
STARLINK-1154 4.2 20:13:42 10° W 20:17:48 59° N 20:21:56 10° E
STARLINK-1144 4.0 20:14:20 10° WNW 20:18:21 49° SSW 20:21:28 16° SE
STARLINK-1215 3.4 20:15:22 10° WNW 20:18:28 59° NNE 20:21:34 10° E
SPOT 5 3.1 20:14:18 12° SSE 20:19:12 87° ENE 20:24:37 10° NNW
ATLAS 2AS CENTAUR R/B 4.0 20:13:12 11° SSE 20:19:16 26° ESE 20:25:32 10° ENE
STARLINK-1243 3.8 20:15:45 10° WSW 20:19:55 79° NNW 20:24:04 10° ENE
STARLINK-1217 3.4 20:17:11 10° WNW 20:20:16 60° N 20:23:22 10° E
NOSS 3-2 (A) 4.1 20:12:54 10° NW 20:20:17 88° SW 20:27:48 14° SE
STARLINK-1229 3.4 20:18:06 10° WNW 20:21:12 60° NNE 20:24:17 10° E
Meteor 1-22 Rocket 4.4 20:15:56 10° N 20:21:53 72° ENE 20:26:47 14° SSE
STARLINK-1270 3.3 20:18:59 10° WNW 20:22:06 60° NNE 20:25:11 10° E
OPS 6432 4.4 20:19:04 10° NW 20:22:10 75° SW 20:24:59 17° SE
STARLINK-1197 4.2 20:18:41 10° W 20:22:47 59° N 20:26:54 10° E
STARLINK-1103 4.1 20:19:19 10° WNW 20:23:18 46° SSW 20:26:14 17° SE
STARLINK-1189 3.3 20:20:47 10° WNW 20:23:53 61° NNE 20:26:59 10° E
ERS-1 Rocket 3.1 20:19:40 11° S 20:24:26 75° WSW 20:29:30 10° NNW
STARLINK-1188 3.3 20:21:42 10° WNW 20:24:48 62° NNE 20:27:54 10° E
STARLINK-1236 3.8 20:20:43 10° WSW 20:24:52 77° NNW 20:29:02 10° ENE
STARLINK-1187 3.2 20:22:47 10° WNW 20:25:52 65° NNE 20:28:57 10° E
STARLINK-1191 3.3 20:24:08 10° WNW 20:27:13 63° NNE 20:30:19 10° E
STARLINK-1198 4.2 20:23:40 10° W 20:27:47 60° N 20:31:53 10° E
STARLINK-1221 3.3 20:25:06 10° WNW 20:28:11 63° NNE 20:31:16 10° E
STARLINK-1101 4.2 20:24:19 10° WNW 20:28:15 43° SW 20:31:01 18° SSE
STARLINK-1222 3.2 20:25:56 10° WNW 20:29:02 63° NNE 20:32:07 10° E
Okean 2 3.7 20:25:56 15° SSE 20:29:14 52° E 20:33:18 10° NNE
Cosmos 1066 Rocket 4.3 20:24:30 10° SSW 20:29:53 76° WNW 20:35:16 10° N
STARLINK-1214 3.2 20:26:50 10° WNW 20:29:56 64° NNE 20:33:02 10° E
USA 238 DEB 3.9 20:24:58 10° NW 20:32:11 79° SW 20:38:25 16° SE
USA 238 3.9 20:25:05 10° NW 20:32:17 80° SW 20:38:32 16° SE
Cosmos 1953 4.3 20:29:39 10° NNE 20:32:24 18° ENE 20:35:00 11° ESE
STARLINK-1199 4.2 20:28:41 10° WNW 20:32:48 60° N 20:36:54 10° E
STARLINK-1102 4.3 20:29:20 10° WNW 20:33:13 40° SW 20:35:48 19° SSE
Cosmos 968 Rocket 4.0 20:28:29 10° NNW 20:33:32 50° ENE 20:37:31 16° SE
Okean 1 Rocket 3.9 20:29:15 10° NNW 20:33:34 48° W 20:37:49 10° SSW
Cosmos 1805 3.4 20:30:01 10° NNW 20:33:56 69° W 20:37:07 15° S
Cosmos 1470 3.8 20:30:33 10° N 20:34:06 33° ENE 20:36:30 17° SE
STARLINK-1228 3.3 20:30:54 10° WNW 20:34:25 78° NNE 20:37:42 11° ESE
STARLINK-1269 3.9 20:30:43 10° W 20:34:51 72° NNW 20:39:01 10° ENE
Resurs 01 Rocket 4.2 20:32:07 10° SW 20:34:54 16° W 20:37:42 10° NW
Cosmos 2278 Rocket 4.2 20:30:42 10° WSW 20:35:43 31° NW 20:40:46 10° NNE
Nadezhda 4 Rocket 4.1 20:30:11 10° SSW 20:36:19 76° WNW 20:42:28 10° N
STARLINK-1235 3.1 20:34:32 10° WNW 20:37:46 77° NNE 20:40:37 13° ESE
STARLINK-1210 4.2 20:33:40 10° WNW 20:37:46 60° N 20:41:53 10° E
STARLINK-1111 4.4 20:34:19 10° WNW 20:38:10 37° SW 20:40:34 19° SSE
Cosmos 1455 Rocket 3.2 20:34:58 10° N 20:39:19 63° ENE 20:42:18 19° SSE
STARLINK-1200 3.9 20:35:41 10° W 20:39:49 70° NNW 20:43:59 10° ENE
STARLINK-1219 4.1 20:38:39 10° WNW 20:42:46 61° N 20:46:53 10° E
STARLINK-1073 4.5 20:39:20 10° WNW 20:43:07 35° SW 20:45:22 20° SSE
SL-8 R/B 4.4 20:39:06 10° W 20:43:30 36° SSW 20:46:16 19° SSE
STARLINK-1192 4.0 20:40:42 10° W 20:44:50 68° NNW 20:48:59 10° ENE
ATLAS CENTAUR R/B 3.5 20:45:54 10° NNW 20:46:57 13° N 20:48:04 10° NE
Cosmos 1758 4.1 20:43:22 10° N 20:47:14 41° ENE 20:49:40 20° SE
STARLINK-1211 4.1 20:43:39 10° WNW 20:47:46 61° N 20:51:54 10° E
Terra 2.0 20:44:22 16° S 20:48:07 72° WSW 20:52:54 10° NNW
ATLAS 3B CENTAUR R/B 4.5 20:42:57 10° SW 20:48:32 15° SSW 20:50:57 13° S
Cosmos 1110 Rocket 4.4 20:44:00 10° SW 20:49:09 65° WNW 20:54:19 10° NNE
SL-4 R/B 3.1 20:45:02 10° SSW 20:49:12 31° SE 20:53:27 10° E
STARLINK-1244 4.0 20:45:41 10° W 20:49:49 67° N 20:53:57 10° ENE
Cosmos 1842 3.2 20:48:52 19° S 20:51:33 68° E 20:55:26 10° NNE
Abrixas rocket 4.0 20:50:01 10° WSW 20:51:42 14° SSW 20:51:50 14° SSW
STARLINK-1245 4.1 20:48:38 10° WNW 20:52:45 62° N 20:56:53 10° E
Cosmos 1503 Rocket 4.5 20:48:08 10° NNW 20:53:21 54° ENE 20:57:15 18° SE
STARLINK-1138 4.0 20:50:41 10° W 20:54:49 65° N 20:58:57 10° ENE
STARLINK-1234 2.9 20:52:17 10° WNW 20:55:35 86° SSW 20:57:44 20° ESE
STARLINK-1233 4.1 20:53:36 10° WNW 20:57:43 63° N 21:01:51 10° E
STARLINK-1143 4.1 20:55:39 10° W 20:59:47 64° N 21:03:55 10° ENE
Cosmos 2263 4.5 20:57:25 17° S 21:01:29 47° ESE 21:06:51 10° NE
STARLINK-1209 2.9 20:58:15 10° WNW 21:01:34 78° SSW 21:03:26 23° ESE
STARLINK-1204 4.0 20:58:36 10° WNW 21:02:43 64° N 21:06:51 10° E
STARLINK-1241 4.1 21:00:42 10° W 21:04:49 63° N 21:08:56 10° ENE
Cosmos 1733 4.1 21:03:21 10° NNW 21:06:58 43° W 21:09:32 17° SSW
STARLINK-1238 4.0 21:03:36 10° WNW 21:07:44 66° N 21:11:52 10° E
STARLINK-1239 4.1 21:05:41 10° W 21:09:48 62° N 21:13:55 10° ENE
Cosmos 1536 Rocket 4.2 21:08:36 23° SE 21:10:42 39° E 21:14:48 10° NNE
Meteor 1-21 4.2 21:07:51 18° S 21:12:09 76° E 21:17:46 10° NNE
COSMOS 2455 3.8 21:09:44 21° SSE 21:12:28 29° ESE 21:17:33 10° NE
Cosmos 1354 Rocket 4.2 21:07:23 10° NNW 21:12:41 67° ENE 21:16:12 21° SE
STARLINK-1201 3.9 21:08:35 10° WNW 21:12:43 67° N 21:16:52 10° E
JB-3 4.4 21:09:50 10° NNE 21:14:02 81° ESE 21:16:37 22° S
USA 215 3.5 21:07:39 10° ESE 21:14:10 71° NNE 21:20:42 10° WNW
STARLINK-1240 4.2 21:10:39 10° W 21:14:46 61° N 21:18:53 10° ENE
Cosmos 1486 Rocket 4.2 21:09:35 10° NNW 21:14:52 67° WSW 21:18:13 22° S
Cosmos 1833 4.2 21:09:47 10° NNW 21:15:28 86° ENE 21:19:13 22° SSE
Cosmos 1302 Rocket 4.2 21:10:42 10° SSW 21:16:00 78° WNW 21:21:21 10° NNE
Cosmos 1544 Rocket 3.5 21:11:45 10° NNW 21:16:06 78° W 21:18:39 24° S
Cosmos 1271 Rocket 2.9 21:14:22 27° SSE 21:16:16 58° E 21:20:09 10° NNE
MTI 4.3 21:13:49 10° N 21:16:55 53° WNW 21:18:58 18° SW
Spot 4 4.1 21:14:22 22° SE 21:17:22 63° ENE 21:22:11 10° N
Cosmos 1242 Rocket 2.5 21:15:26 25° S 21:17:28 85° ESE 21:21:11 10° NNE
Cosmos 2297 Rocket 4.4 21:13:31 10° NNW 21:17:40 20° NE 21:21:48 10° E
STARLINK-1206 3.9 21:13:35 10° WNW 21:17:44 69° NNE 21:21:52 10° E
STARLINK-1203 4.2 21:15:30 10° W 21:19:40 61° N 21:23:51 10° ENE
STARLINK-1216 4.2 21:15:39 10° W 21:19:45 61° N 21:23:52 10° ENE
STARLINK-60 3.2 21:20:10 32° SSW 21:21:06 42° SSE 21:24:08 10° ENE
STARLINK-1205 3.9 21:18:33 10° WNW 21:22:43 71° NNE 21:26:51 10° E
NOSS 2-2 (D) 4.3 21:20:10 10° WSW 21:23:42 48° NW 21:27:53 10° NE
CENTAUR R/B 3.2 21:16:49 10° NW 21:24:45 71° SW 21:31:08 20° SSE
STARLINK-1237 4.2 21:20:39 10° W 21:24:45 60° N 21:28:52 10° ENE
Cosmos 1707 2.8 21:24:35 30° SSE 21:26:20 60° E 21:30:11 10° NNE
STARLINK-1218 3.8 21:23:33 10° WNW 21:27:42 73° NNE 21:31:52 10° E
SL-27 R/B 3.8 21:24:41 10° NW 21:27:53 30° WSW 21:29:28 21° SSW
ATLAS 3B R/B 2.8 21:21:18 10° NW 21:28:05 75° NE 21:33:56 16° SE
STARLINK-1202 4.2 21:25:39 10° W 21:29:45 60° N 21:33:52 10° E
NOSS 3-2 (C) 4.2 21:22:34 10° NW 21:29:54 61° SW 21:35:37 21° SSE
Cosmos 1726 2.4 21:27:36 10° N 21:31:18 55° ENE 21:32:50 31° SE
Meteor 1-16 Rocket 4.4 21:27:06 10° N 21:32:36 60° ENE 21:35:51 24° SSE
STARLINK-1254 3.8 21:28:32 10° WNW 21:32:41 75° NNE 21:36:51 10° ESE
ALOS 2 3.3 21:30:24 22° SE 21:32:52 44° ENE 21:37:03 10° N
Cosmos 1867 3.6 21:29:22 10° NW 21:34:50 77° SW 21:38:07 25° SSE
COSMOS 2487 2.6 21:32:15 10° NNW 21:35:42 62° ENE 21:37:03 33° SE
STARLINK-1231 3.7 21:33:30 10° WNW 21:37:40 77° NNE 21:41:49 10° ESE
Cosmos 1992 Rocket 3.9 21:36:08 22° S 21:39:31 73° ESE 21:44:44 10° NNE
Cosmos 1943 Rocket 2.8 21:34:04 10° SW 21:39:31 56° NW 21:45:03 10° NNE
STARLINK-1246 4.2 21:35:39 10° W 21:39:46 59° N 21:43:52 10° E
NOSS 3-4 (A) 3.5 21:36:32 17° SSW 21:41:03 58° SE 21:47:18 10° NE
NOSS 3-4 (C) 3.5 21:36:40 17° SSW 21:41:10 58° SE 21:47:25 10° NE
SeaSat 1 2.6 21:36:57 10° NE 21:41:50 57° ESE 21:44:34 25° S
STARLINK-1232 3.7 21:38:30 10° WNW 21:42:40 80° NNE 21:46:40 11° ESE
EO 1 Del DPAF 3.1 21:38:56 10° NNE 21:42:44 87° ESE 21:44:29 31° SSW
STARLINK-1224 4.2 21:40:38 10° W 21:44:45 59° N 21:48:51 10° E
STARLINK-1208 3.6 21:43:28 10° WNW 21:47:38 83° NNE 21:51:25 12° ESE
Cosmos 2315 Rocket 4.3 21:42:06 10° N 21:48:14 58° ENE 21:52:08 23° SSE
STARLINK-1225 4.2 21:45:39 10° W 21:49:45 60° N 21:53:52 10° E
STARLINK-1212 3.1 21:47:39 10° WNW 21:50:40 46° SSW 21:50:47 46° SSW
STARLINK-29 3.8 21:51:41 33° ESE 21:51:41 33° ESE 21:54:00 10° ENE
Meteor 2-10 4.0 21:45:58 10° NNW 21:51:01 75° W 21:53:43 28° S
STARLINK-1105 3.1 21:48:07 10° WNW 21:51:07 46° SSW 21:51:13 46° SSW
STARLINK-1247 3.1 21:49:00 10° WNW 21:52:01 46° SSW 21:52:07 45° SSW
STARLINK-1227 3.2 21:49:30 10° WNW 21:52:29 45° SSW 21:52:32 45° SSW
Cosmos 292 Rocket 4.3 21:48:20 13° SW 21:52:36 59° WNW 21:57:27 10° NNE
STARLINK-1271 3.6 21:48:28 10° WNW 21:52:38 86° NNE 21:56:14 14° ESE
BREEZE-M DEB (TANK) 3.0 21:42:49 10° WSW 21:53:16 77° S 21:56:27 10° E
STARLINK-1226 3.2 21:50:21 10° WNW 21:53:21 45° SSW 21:53:23 45° SSW
BREEZE-M DEB (TANK) 2.8 21:50:14 10° W 21:53:46 64° SSW 21:58:07 10° ESE
STARLINK-1215 3.2 21:51:15 10° WNW 21:54:16 44° SSW 21:54:16 44° SSW
S3M 4.1 21:48:09 10° NNW 21:54:17 72° W 21:58:10 24° S
RESURS DK-1 3.7 21:53:56 23° ESE 21:54:35 24° ESE 21:57:57 10° NE
STARLINK-1230 4.2 21:50:38 10° WNW 21:54:45 60° N 21:58:51 10° E
Cosmos 2227 Rocket 4.0 21:50:08 10° NNW 21:54:59 28° NE 21:59:49 10° E
Cosmos 2369 Rocket 2.8 21:50:06 10° SW 21:55:41 58° NW 22:01:17 10° NNE
STARLINK-1217 3.3 21:53:04 10° WNW 21:56:00 43° SW 21:56:00 43° SW
STARLINK-1229 3.3 21:53:59 10° WNW 21:56:54 42° SW 21:56:54 42° SW
STARLINK-1154 3.5 21:53:27 10° WNW 21:57:38 89° NE 22:01:00 15° ESE
STARLINK-1270 3.3 21:54:53 10° WNW 21:57:45 41° SW 21:57:45 41° SW
STARLINK-1189 3.4 21:56:41 10° WNW 21:59:29 40° SW 21:59:29 40° SW
STARLINK-1243 4.2 21:55:38 10° WNW 21:59:44 60° N 22:03:52 10° E
STARLINK-1188 3.4 21:57:36 10° WNW 22:00:22 39° SW 22:00:22 39° SW
Cosmos 1340 Rocket 2.9 21:56:49 10° NNW 22:00:53 73° W 22:02:31 35° S
ATLAS CENTAUR R/B 1.4 21:59:35 30° SSW 22:01:31 61° SE 22:05:35 10° NE
STARLINK-1187 3.7 21:58:44 10° W 22:01:14 34° SW 22:01:14 34° SW
Cosmos 1626 4.0 22:01:28 16° ESE 22:02:30 18° E 22:05:05 10° NE
STARLINK-1197 3.5 21:58:24 10° WNW 22:02:34 87° SSW 22:05:46 17° ESE
Aureole 3 2.6 21:59:28 10° N 22:02:45 82° ENE 22:03:24 52° SSE
STARLINK-1191 3.6 22:00:03 10° WNW 22:02:39 37° SW 22:02:39 37° SW
Thor Agena Rocket 3.8 21:58:09 10° N 22:03:26 67° WNW 22:07:11 19° SSW
STARLINK-1221 3.6 22:01:00 10° WNW 22:03:34 36° SW 22:03:34 36° SW
STARLINK-1236 4.1 22:00:36 10° WNW 22:04:44 61° N 22:08:51 10° E
STARLINK-1222 3.6 22:01:51 10° WNW 22:04:23 35° SW 22:04:23 35° SW
Cosmos 1025 Rocket 3.6 22:02:57 22° SW 22:05:29 52° WNW 22:09:43 10° N
STARLINK-1214 3.7 22:02:45 10° W 22:05:15 35° SW 22:05:15 35° SW
Cosmos 1908 3.3 22:02:10 10° N 22:05:58 64° ENE 22:07:21 36° SSE
Nimbus 7 Rocket 4.5 22:00:22 10° NNE 22:06:28 72° ESE 22:10:05 26° S
Meteor 2-19 Rocket 4.4 22:03:37 25° S 22:07:25 86° E 22:13:35 10° N
EXPRESS MD2 4.4 22:03:00 10° W 22:07:32 87° S 22:17:23 10° E
STARLINK-1198 3.5 22:03:23 10° WNW 22:07:33 84° SSW 22:10:32 18° ESE
Cosmos 1953 2.8 22:05:14 10° NNW 22:09:07 50° W 22:10:41 31° SSW
Cosmos 1656 Rocket 3.7 22:04:50 17° SSW 22:09:13 80° WNW 22:14:49 10° NNE
BREEZE M DEB (TANK) 2.8 22:06:53 10° W 22:08:32 33° WSW 22:08:32 33° WSW
ATLAS 2AS CENTAUR R/B 3.0 22:01:25 10° SW 22:09:26 86° SE 22:17:24 10° NE
BREEZE-M DEB (TANK) 4.2 22:00:51 10° WNW 22:10:26 37° SW 22:11:56 29° S
STARLINK-1228 4.2 22:08:19 10° W 22:11:08 29° SW 22:11:08 29° SW
STARLINK-1199 3.5 22:08:23 10° WNW 22:12:33 80° SSW 22:15:20 20° ESE
STARLINK-1235 4.3 22:11:03 10° W 22:13:12 25° WSW 22:13:12 25° WSW
Cosmos 2292 Rocket 2.9 22:13:24 40° SSW 22:14:35 83° W 22:17:45 10° N
STARLINK-1269 4.1 22:10:36 10° WNW 22:14:43 63° N 22:18:51 10° E
STARLINK-1210 3.5 22:13:21 10° WNW 22:17:31 76° SSW 22:20:06 22° ESE
FALCON 9 R/B 4.4 22:19:35 15° SE 22:19:35 15° SE 22:22:58 10° ESE
KORONAS-FOTON 3.9 22:17:21 39° SSE 22:18:34 64° E 22:22:24 10° NNE
Cosmos 1655 Rocket 4.3 22:15:01 20° SSW 22:19:26 62° WNW 22:25:40 10° N
STARLINK-1200 4.0 22:15:34 10° WNW 22:19:42 64° N 22:23:49 10° E
SL-4 R/B 2.0 22:20:18 30° WNW 22:20:18 30° WNW 22:21:53 10° NNW
Cosmos 1777 Rocket 4.0 22:15:13 10° NNW 22:20:29 89° ENE 22:23:18 28° SSE
STARLINK-1219 3.5 22:18:20 10° WNW 22:22:28 72° SSW 22:24:52 24° SE
ATLAS 5 CENTAUR R/B 1.0 22:21:46 21° SW 22:23:47 83° NW 22:25:54 10° NE
STARLINK-1192 4.0 22:20:34 10° WNW 22:24:43 65° N 22:28:50 10° E
STARLINK-52 2.8 22:26:27 58° S 22:26:44 61° SSE 22:29:56 10° ENE
Terra 4.4 22:26:22 10° W 22:26:45 10° W 22:27:08 10° W
Cosmos 1892 Rocket 4.0 22:25:06 31° SSE 22:26:47 48° E 22:31:00 10° NNE
Cosmos 2228 2.9 22:22:39 10° NNW 22:26:56 85° W 22:28:36 36° S
STARLINK-1211 3.5 22:23:20 10° WNW 22:27:27 69° SSW 22:29:40 26° SE
Cosmos 1726 Rocket 3.5 22:23:21 10° N 22:27:43 81° E 22:29:31 35° SSE
SL-4 R/B 2.3 22:23:45 10° WSW 22:28:36 80° SSE 22:33:25 10° ENE
STARLINK-1244 4.0 22:25:33 10° WNW 22:29:41 67° N 22:33:49 10° E
ERBS 4.3 22:28:05 10° NW 22:31:04 29° NNE 22:34:04 10° ENE
Cosmos 1300 3.5 22:28:19 10° N 22:31:59 42° ENE 22:33:33 27° SE
STARLINK-1338 4.5 22:32:45 28° SE 22:32:45 28° SE 22:35:28 10° E
STARLINK-1245 3.5 22:28:18 10° WNW 22:32:26 65° SSW 22:34:26 28° SE
Cosmos 921 Rocket 3.8 22:31:52 30° SE 22:33:13 38° ESE 22:37:16 10° NE
In-Cosmos 22 4.3 22:30:05 24° SSW 22:33:16 63° WNW 22:38:33 10° N
YAOGAN 11 4.1 22:31:51 32° SSE 22:33:49 77° ENE 22:38:09 10° NNW
STARLINK-1138 3.9 22:30:32 10° WNW 22:34:40 68° N 22:38:49 10° E
Meteor 1-24 Rocket 4.0 22:33:05 27° SSE 22:35:42 51° E 22:41:01 10° NNE
STARLINK-1233 3.6 22:33:16 10° WNW 22:37:22 61° SSW 22:39:12 30° SE
STARLINK-1340 4.5 22:38:51 23° ESE 22:38:51 23° ESE 22:40:27 10° E
Cosmos 2266 Rocket 4.2 22:33:43 22° SSW 22:37:41 61° WNW 22:43:41 10° N
CZ-4C R/B 4.0 22:36:20 12° ESE 22:37:48 14° ESE 22:40:28 10° ENE
STARLINK-1356 4.5 22:39:10 23° ESE 22:39:10 23° ESE 22:40:47 10° E
STARLINK-1345 4.5 22:39:28 23° ESE 22:39:28 23° ESE 22:41:06 10° E
STARLINK-1355 4.5 22:39:47 23° ESE 22:39:47 23° ESE 22:41:26 10° E
STARLINK-1371 4.3 22:39:09 31° SE 22:39:09 31° SE 22:42:08 10° E
STARLINK-1321 4.4 22:40:09 23° ESE 22:40:09 23° ESE 22:41:49 10° E
STARLINK-1358 4.4 22:40:29 23° ESE 22:40:29 23° ESE 22:42:09 10° E
STARLINK-1332 4.4 22:40:47 24° ESE 22:40:47 24° ESE 22:42:29 10° E
STARLINK-1143 3.9 22:35:30 10° WNW 22:39:39 70° NNE 22:43:48 10° E
STARLINK-1348 4.4 22:41:05 24° ESE 22:41:05 24° ESE 22:42:47 10° E
STARLINK-1330 4.4 22:41:27 24° ESE 22:41:27 24° ESE 22:43:09 10° E
Cosmos 1437 4.0 22:40:11 25° ESE 22:40:29 25° E 22:43:03 10° NE
STARLINK-1363 4.4 22:41:46 24° ESE 22:41:46 24° ESE 22:43:30 10° E
STARLINK-1337 4.4 22:42:07 25° ESE 22:42:07 25° ESE 22:43:51 10° E
STARLINK-1342 4.3 22:42:25 25° ESE 22:42:25 25° ESE 22:44:10 10° E
STARLINK-1364 4.3 22:42:45 25° ESE 22:42:45 25° ESE 22:44:32 10° E
STARLINK-1376 4.3 22:43:04 25° ESE 22:43:04 25° ESE 22:44:51 10° E
STARLINK-1341 4.2 22:42:21 33° SE 22:42:21 33° SE 22:45:29 10° E
STARLINK-1204 3.6 22:38:16 10° WNW 22:42:20 58° SSW 22:43:59 32° SE
STARLINK-1360 4.3 22:43:23 26° ESE 22:43:23 26° ESE 22:45:12 10° E
STARLINK-1361 4.3 22:43:43 26° ESE 22:43:43 26° ESE 22:45:32 10° E
STARLINK-1367 4.2 22:44:00 26° ESE 22:44:00 26° ESE 22:45:54 10° E
STARLINK-1366 4.2 22:44:23 26° ESE 22:44:23 26° ESE 22:46:14 10° E
SJ 16-02 2.7 22:39:36 10° N 22:43:41 34° ENE 22:47:11 13° ESE
STARLINK-1241 3.8 22:40:32 10° WNW 22:44:41 72° NNE 22:48:49 10° E
STARLINK-1339 4.1 22:45:37 32° SE 22:45:37 32° SE 22:48:30 10° E
STARLINK-1374 4.1 22:45:33 35° SE 22:45:33 35° SE 22:48:50 10° ENE
STARLINK-1238 3.7 22:43:16 10° WNW 22:47:20 54° SSW 22:48:48 34° SSE
Helios 1B rocket 3.4 22:44:50 10° NNE 22:48:42 36° E 22:50:09 27° SE
STARLINK-1239 3.8 22:45:30 10° WNW 22:49:39 74° NNE 22:53:48 10° E
Cosmos 1674 3.1 22:48:20 32° SW 22:49:45 52° WNW 22:53:29 10° N
STARLINK-1377 3.9 22:52:00 38° SSE 22:52:04 38° SE 22:55:37 10° ENE
STARLINK-1201 3.7 22:48:15 10° WNW 22:52:17 51° SSW 22:53:34 36° SSE
Cosmos 1244 Rocket 4.5 22:51:03 27° S 22:54:36 80° E 23:00:47 10° NNE
STARLINK-1240 3.7 22:50:28 10° WNW 22:54:38 77° NNE 22:58:47 10° ESE
STARLINK-1353 3.8 22:55:17 40° SSE 22:55:28 40° SSE 22:59:02 10° ENE
CZ-2D R/B 4.4 22:53:58 10° ENE 22:56:06 12° E 22:58:12 10° ESE
STARLINK-60 3.4 22:54:00 10° W 22:57:09 61° NNW 23:00:20 10° ENE
STARLINK-1206 3.8 22:53:16 10° WNW 22:57:16 48° SSW 22:58:21 37° SSE
USA 215 3.4 22:52:57 21° SSE 22:57:22 53° SW 23:03:47 10° WNW
COSMOS 2455 3.2 22:52:50 14° SW 22:58:00 66° NW 23:04:02 10° NNE
Cosmos 2219 3.2 22:52:43 10° NNW 22:58:26 83° ENE 23:02:17 21° SSE
STARLINK-1375 3.7 22:58:33 41° SSE 22:58:52 42° SSE 23:02:28 10° ENE
STARLINK-1216 3.7 22:55:26 10° WNW 22:59:36 79° NNE 23:03:45 10° ESE
STARLINK-1203 3.7 22:55:31 10° WNW 22:59:44 80° NNE 23:03:57 10° ESE
STARLINK-1352 3.6 23:01:56 43° SSE 23:02:08 43° SSE 23:05:36 10° ENE
STARLINK-1205 3.9 22:58:14 10° WNW 23:02:12 45° SSW 23:03:06 38° S
STARLINK-1350 3.7 23:01:49 42° S 23:02:15 45° SSE 23:05:53 10° ENE
Cosmos 2297 Rocket 2.3 22:57:02 10° NNW 23:02:44 75° ENE 23:07:00 18° SE
Helios 1A 3.6 23:01:35 31° SW 23:03:01 43° W 23:07:03 10° NNW
STARLINK-1237 3.6 23:00:25 10° WNW 23:04:35 82° NNE 23:08:45 10° ESE
PSLV R/B 3.9 23:01:34 10° NNE 23:06:02 56° E 23:07:53 31° SSE
Cosmos 1726 4.5 23:04:10 10° NW 23:06:02 13° W 23:07:20 12° WSW
Lacrosse 4 Rocket 2.9 23:02:29 10° NNW 23:06:33 36° NE 23:10:29 10° ESE
STARLINK-1218 4.0 23:03:15 10° WNW 23:07:11 42° SSW 23:07:54 38° S
STARLINK-1368 3.6 23:08:27 43° S 23:09:08 49° SSE 23:12:49 10° ENE
ALOS 2 4.1 23:07:47 20° SW 23:09:23 24° W 23:12:58 10° NW
STARLINK-1202 3.6 23:05:25 10° WNW 23:09:35 85° NNE 23:13:44 10° ESE
Timation 2 Rocket 4.3 23:03:54 10° NW 23:09:55 48° WSW 23:12:55 27° SSW
Cosmos 2058 Rocket 3.3 23:05:47 10° NNW 23:10:10 59° W 23:11:58 33° SSW
Cosmos 1455 4.0 23:07:13 10° NNE 23:10:24 25° ENE 23:12:54 14° ESE
STARLINK-1254 4.1 23:08:15 10° WNW 23:12:08 39° SW 23:12:41 37° SSW
Cosmos 2082 4.5 23:07:00 10° NNW 23:12:33 50° NE 23:18:00 10° SE
STARLINK-1369 3.5 23:11:47 42° SSW 23:12:36 52° SSE 23:16:19 10° ENE
Meteor 1-29 3.8 23:09:45 10° NNE 23:12:55 37° E 23:13:48 31° SE
Cosmos 1898 Rocket 4.1 23:07:51 10° NNW 23:13:08 57° ENE 23:17:35 14° SE
Cosmos 1626 Rocket 4.0 23:11:50 29° SSE 23:13:43 51° E 23:17:58 10° NNE
STARLINK-1372 3.5 23:15:07 41° SSW 23:16:05 54° SSE 23:19:49 10° ENE
STARLINK-1231 4.1 23:13:14 10° WNW 23:17:04 37° SW 23:17:27 36° SSW
Meteor 2-5 Rocket 4.0 23:14:12 25° SSW 23:17:28 61° WNW 23:23:04 10° N
Starlink 7 placeholder 3.6 23:17:57 32° NNE 23:17:57 32° NNE 23:19:30 10° ENE
ATLAS 3B R/B 3.6 23:12:30 10° NW 23:18:19 31° WSW 23:21:10 23° SSW
SeaSat 1 4.0 23:14:49 10° NNE 23:19:07 31° NW 23:23:25 10° WSW
STARLINK-1246 3.5 23:15:23 10° WNW 23:19:33 89° SSW 23:23:43 10° ESE
STARLINK-1378 3.4 23:18:28 39° SSW 23:19:35 57° SSE 23:23:18 10° ENE
SL-14 R/B 3.3 23:19:11 36° SSW 23:20:36 66° WNW 23:24:27 10° N
STARLINK-1232 4.2 23:18:15 10° WNW 23:22:02 34° SW 23:22:15 34° SSW
FALCON 9 DEB 3.1 23:20:07 23° WSW 23:22:09 86° NNW 23:25:37 10° ENE
IRAS Rocket 4.5 23:18:20 18° SSE 23:22:32 67° ENE 23:28:03 10° NNW
STARLINK-1379 3.4 23:21:51 37° SW 23:23:05 59° SSE 23:26:50 10° ENE
STARLINK-1329 3.4 23:23:14 36° SW 23:24:32 61° SSE 23:28:18 10° ENE
STARLINK-1224 3.5 23:20:22 10° WNW 23:24:32 85° SSW 23:28:40 10° ESE
SL-16 R/B 3.6 23:20:20 10° SE 23:26:04 43° ENE 23:31:50 10° N
STARLINK-1208 4.3 23:23:15 10° W 23:26:59 32° SW 23:27:00 32° SW
STARLINK-29 3.3 23:24:02 11° W 23:27:02 64° NNW 23:30:14 10° ENE
STARLINK-1362 3.3 23:26:40 34° SW 23:28:06 63° SSE 23:31:53 10° ENE
Cosmos-2242 4.5 23:25:12 10° N 23:29:03 32° ENE 23:32:30 12° SE
ATLAS CENTAUR R/B 1.2 23:26:45 10° WNW 23:29:05 62° SW 23:33:41 10° SE
STARLINK-1225 3.5 23:25:21 10° WNW 23:29:31 81° SSW 23:33:40 10° ESE
Cosmos 1656 4.0 23:27:53 26° S 23:30:52 54° ESE 23:36:20 10° NE
STARLINK-1373 3.3 23:30:05 32° SW 23:31:40 66° SSE 23:35:29 10° ENE
STARLINK-1271 4.5 23:28:18 10° W 23:31:49 30° SW 23:31:49 30° SW
RESURS DK-1 3.3 23:29:48 19° WSW 23:32:25 44° NW 23:36:24 10° NNE
STARLINK-1365 3.3 23:31:12 30° SW 23:32:54 69° SSE 23:36:44 10° ENE
STARLINK-1230 3.5 23:30:20 10° WNW 23:34:29 78° SSW 23:38:37 10° ESE
STARLINK-1390 3.3 23:33:35 30° SW 23:35:17 69° SSE 23:39:06 10° ENE
Cosmos 1697 Rocket 3.7 23:32:47 20° SSE 23:35:54 35° ESE 23:40:59 10° NE
Cosmos 1812 Rocket 3.6 23:31:58 10° N 23:36:28 81° E 23:38:55 26° SSE
Cosmos 2084 3.8 23:33:36 19° WSW 23:36:41 65° NW 23:41:09 10° NE
Cosmos 1626 3.0 23:36:00 27° WSW 23:37:28 39° WNW 23:41:01 10° N
BREEZE-M R/B 3.3 23:31:55 10° WSW 23:38:14 52° SSE 23:41:32 10° E
Cosmos 990 Rocket 4.0 23:34:07 10° NNW 23:39:25 89° WSW 23:43:09 20° SSE
STARLINK-1243 3.5 23:35:19 10° WNW 23:39:28 74° SSW 23:43:36 10° ESE
Cosmos 2227 Rocket 2.2 23:33:55 10° NNW 23:39:36 72° WSW 23:43:29 21° SSE
Okean 1-7 Rocket 4.4 23:37:39 23° SW 23:39:58 42° WNW 23:44:18 10° N
ATLAS CENTAUR R/B 3.3 23:37:03 10° W 23:40:42 27° NW 23:44:10 10° NNE
CZ-4 R/B 4.0 23:36:31 10° N 23:41:16 66° WNW 23:43:50 26° SW
STARLINK-1236 3.5 23:40:17 10° WNW 23:44:26 70° SSW 23:48:33 10° ESE
USA 81 4.4 23:42:28 21° SSE 23:45:51 59° E 23:51:04 10° NNE
Alouette 2 Rocket 4.1 23:41:54 10° NNW 23:47:43 66° ENE 23:50:42 19° SSE
Cosmos 1709 Rocket 4.3 23:44:10 20° SSE 23:48:22 61° E 23:54:27 10° NNE
Cosmos 1602 Rocket 3.5 23:47:23 30° S 23:49:30 90° W 23:53:52 10° N
SL-08 ROCKET BODY 4.3 23:46:46 25° SSW 23:50:23 80° W 23:56:16 10° N
Cosmos 2285 Rocket 4.2 23:46:52 10° NNW 23:53:17 75° ENE 23:59:36 10° SSE
STARLINK-1269 3.5 23:50:16 10° WNW 23:54:23 63° SSW 23:58:28 10° SE
